Regional Weather Roundup
Issued by NWS Charleston, SC

Current Version | Previous Version | Graphics & Text | Print | Product List | Glossary On
Versions: 1 2 3 4 5 6 7 8 9 10 11 12 13 14 15 16 17 18 19 20 21 22 23 24 25 26 27 28 29 30 31 32 33 34 35 36 37 38 39 40 41 42 43 44 45 46 47 48 49 50
000
ASUS42 KCHS 231912
RWRCHS

Regional Weather Roundup
National Weather Service Charleston SC
200 PM EST TUE JAN 23 2018

NOTE: "fair" indicates few or no clouds below 12,000 feet with no
significant weather and/or obstructions to visibility.

Not all stations are quality controlled. Use data with caution,
especially dewpoint observations.

SCZ027-030-031-034>040-042>050-232000-
...Southeast South Carolina...

CITY           SKY/WX    TMP DP  RH WIND       PRES   REMARKS
N Charleston   PTSUNNY   78  57  48 SW17G24   29.85F
Waterfront Prk   N/A     63  59  87 S8        29.71F
Mount Pleasant FAIR      73  63  68 S12       29.86F
Johns Island   FAIR      66  59  77 S14       29.87F
Pinopolis        N/A     68  57  68 W22       29.76F
Moncks Corner  FAIR      73  50  43 SW16G30   29.85F
Summerville    FAIR      73  54  49 W12G24    29.87S
Beaufort MCAS  FAIR      75  58  55 W16G28    29.89S
Beaufort Arpt  FAIR      75  55  50 W18G25    29.88S
Hilton Head Is MOSUNNY   75  57  53 W21       29.90F
Walterboro     FAIR      72  50  46 W21G32    29.88F
Allendale      FAIR      70  32  24 W15G25    29.89S

...Southern Midlands and Pee Dee...

CITY           SKY/WX    TMP DP  RH WIND       PRES   REMARKS
Georgetown     CLOUDY    72  61  68 W16       29.84F
Kingstree      FAIR      72  50  46 SW15G22   29.83S
Orangeburg     FAIR      71  39  31 W18G30    29.86F
Barnwell         N/A     70  37  30 SW20G29   29.88F
Aiken          FAIR      63  30  29 SW16G26   29.92S
Manning        FAIR      72  46  40 MISG      29.84F
Columbia       FAIR      70  34  26 W20G25    29.85F
Sumter         FAIR      72  37  28 SW20G26   29.81F
Florence       FAIR      73  47  39 W25G39    29.80F
Myrtle Beach   PTSUNNY   74  60  61 SW17G24   29.82F
N Myrtle Beach FAIR      61  56  83 S13       29.82F

$$

GAZ063-065-086>088-099>101-113>116-118-119-134>141-150-232000-
...Southeast Georgia...

CITY           SKY/WX    TMP DP  RH WIND       PRES   REMARKS
Savannah Arpt  FAIR      74  53  48 W24G31    29.91F
Hunter AAF     FAIR      76  55  47 W20G28    29.88F
Fort Stewart   FAIR      73  51  45 W14G25    29.91F
Statesboro     FAIR      72  31  21 W15G25    29.92F
Sylvania       FAIR      70  45  39 W12G21    29.92F
Claxton        FAIR      72  42  34 SW16G22   29.94F

...CSRA, Central and far Southeast Georgia...

CITY           SKY/WX    TMP DP  RH WIND       PRES   REMARKS
Thomson        FAIR      61  32  34 NW14G20   29.97F
Augusta-Bush   FAIR      67  27  22 W21G29    29.90F
Augusta-Daniel FAIR      65  31  28 W9G23     29.91F
Swainsboro     FAIR      66  32  28 W14G22    29.95F
Vidalia        FAIR      70  37  30 W15G21    29.96F
Eastman        FAIR      66  -6   5 W9G18     30.00F
Hazlehurst     FAIR      70  15  12 W5G16     29.96F
Alma           FAIR      71  39  31 SW14G21   29.96F
Waycross       FAIR      72  40  31 W14G23    29.97F
Jesup          FAIR      73  48  40 W10G21    29.96F
Baxley         FAIR      68  36  30 W13G22    29.96F
Brunswick      FAIR      73  57  56 W22G28    29.95F
Saint Simons   FAIR      75  61  61 W13G22    29.94F

$$

SCZ027-028-034-036>038-045-046-048>050-GAZ119-141-232000-
...Lake and Supplemental Coastal Observations...

STATION/POSITION TIME  TEMP    WIND        PRES    WAVE   SWELL
                       AIR SEA DIR/SP/G            HT/PER HT/PER/DIR
                 (UTC) (F)     (DEG/KT/KT) (MB)    (FT/S) (FT/S/D)
Winyah Bay       1745   69     250/  9     1011.0
Lake Murray      1820   61     240/ 18/ 24 1010.5
ACE Basin NERRS  1745   71     240/  6     1012.0
Fort Pulaski     1836   72 47  270/ 17/ 22 1012.8F
Sapelo Island    1800   68     260/ 15     1014.0

$$

ANZ835-935-AMZ111-154-330-350-352-354-370-450-454-472-232000-
...C-MAN and Buoy Observations...

STATION/POSITION TIME  TEMP    WIND        PRES    WAVE   SWELL
                       AIR SEA DIR/SP/G            HT/PER HT/PER/DIR
                 (UTC) (F)     (DEG/KT/KT) (MB)    (FT/S) (FT/S/D)
Buoy 41004       1850          230/ 23/ 27 1011.8F   7/ 7
Buoy 41008       1850   55 51  200/ 12/ 14 1013.3F   3/ 6   2/110/ 6
Folly Beach CMAN 1900   54     220/ 10/ 13 1012.3F
Capers Nearshore 1808   52 53  230/ 16/ 21 1011.7F
Fripp Nearshore  1808   50 49  220/ 12/ 17 1016.0F


STATION/POSITION TIME  TEMP    WIND        PRES    WAVE   SWELL
                       AIR SEA DIR/SP/G            HT/PER HT/PER/DIR
                 (UTC) (F)     (DEG/KT/KT) (MB)    (FT/S) (FT/S/D)
5E St. Marys GA  1830      51                N/A     3/ 6
Frying Pan Buoy  1850   65     240/ 17/ 21 1010.7F
Buoy 41025       1850      70  230/ 27/ 37 1009.5F  11/ 8
Cape Lookout NC  1800          230/ 14/ 19 1010.2F
Buoy 41002       1850   71 70  180/ 19/ 21 1015.1F   6/ 7   2/ 80/10
Buoy 41010       NOT AVBL
St Augustine FL  1900   74 53  270/ 11/ 13 1015.3F


$$




USA.gov is the U.S. government's official web portal to all federal, state and local government web resources and services.